{"data":{"norad_id":59411,"intl_designator":"2024-064P","name":"STARLINK-31483","alt_names":[],"object_type":"PAYLOAD","status":"ACTIVE","operator":null,"country":"US","launch_date":"2024-04-05","launch_site_code":"AFETR","launch_vehicle":null,"mission":null,"orbit_class":"UNKNOWN","rcs_meters":null,"size_class":null,"mass_kg":null,"dimensions":null,"purposes":["comms"],"wikipedia_slug":null,"has_3d_model":false,"image_url":null,"decayed_at":null,"tle_current":{"epoch":"2026-05-24T22:12:21.553344Z","epoch_age_seconds":77674,"freshness":"FRESH","line1":"1 59411U 24064P   26144.92524946 -.00000203  00000+0  21576-5 0  9995","line2":"2 59411  43.0019 345.7510 0000905 274.6779  85.3969 15.27589013120880","mean_motion":15.27589013,"eccentricity":9.05e-5,"inclination_deg":43.0019,"raan_deg":345.751,"arg_perigee_deg":274.6779,"mean_anomaly_deg":85.3969,"bstar":2.1576e-6,"rev_number":12088,"period_min":94.266192525961,"perigee_km":482.40117310866,"apogee_km":483.64304290721,"semimajor_km":6861.1591080079,"source":"CELESTRAK","updated_at":"2026-05-25T13:38:18.941228Z"}}}